VANGUARD R/B, 12

Orbit data source: Space-Track

VANGUARD R/B, 12 is space debris in LEO originally from a launch on Tue, 17 Feb 1959 UTC launched from the Air Force Eastern Test Range (AFETR). Debris objects in space refer to the collection of defunct objects orbiting the Earth. Examples of debris include non-operational satellites, rocket bodies, and fragments generated from explosions, collisions, or faulty payload assembly.

Loading next visibility...
Identifier
12, 1959-001B
Orbit
LEO
Country
Flag of USUS
Related business
Manufacturer
GCR/Redlands
Mission
Spacecraft
Bus & Motor
33-KS-2800, Unknown motor
Mass
22 kg wet, 22 kg dry
Launch date (UTC)
1959-02-17 (67 years ago)
Launch vehicle
Unknown
Launch site
Air Force Eastern Test Range (AFETR)
Object type
Payload
Rocket body
Debris
Shape & HBR
Cyl, 0.8 m
Radar Cross Section
1.017 m², Medium (>0.1 m² and < 1m²)

Expand to show TLE details & history
Last TLE update: 12 hours ago

TLE from 12 hours ago
0 VANGUARD R/B
1 00012U 59001B   25246.08873520  .00003420  00000-0  20380-2 0  9994
2 00012  32.8951 156.8095 1646584  25.1009 342.1245 11.47926831498316
Epoch: 2025-09-03T02:07Z
TLE epoch observation values (Epoch: 2025-09-03T02:07:46.721Z)
Latitude
-0.00002°
Longitude
142.39417°
Altitude
648.384 km
Speed
8.091 km/s
True Right ascension
10h 27m 14s
True Declination
0° 00' 00"
Sunlit
Object was in daylight at epoch
Visualization orbit readout
Latitude
Unknown
Longitude
Unknown
Altitude
Unknown
Speed
Unknown
Apparent Right ascension
Unknown
Apparent Declination
Unknown
Sunlit
N/A
Visualization observer readout
Local Sidereal Time
06:22:34
Azimuth
Unknown
Elevation
Unknown
Doppler factor
Unknown
Orbital elements
Apogee altitude
3,293.185 km
Perigee altitude
558.539 km
Semi-major axis
8,303.999 km
Eccentricity
0.16466
Inclination
32.8951°
RAAN
156.8095°
Arg. of periapsis
25.1009°
True anomaly
334.95855°
Mean anomaly
342.1245°
Eccentric anomaly
338.69705°
Mean motion
2.86822 °/min
Orbital period
125.51 mins
BSTAR
0.002038
Loading maneuver chart data...
Computing Atmospheric mass density...
Loading historical data...
Loading historical data...
Loading historical data...
Loading historical data...
Loading historical data...
Loading historical data...
Loading historical data...
Other satellites on launch #1 in the year 1959 (1959-02-17 UTC)

Documentation

Showing up to 5 results
|